Orbital Elements at Epoch 2459200.5 (2020-Dec-17.0) TDB
Reference: JPL 19 (heliocentric ecliptic J2000)
Element | Value | Uncertainty (1-sigma) | Units |
e | .3122016978180384 | 5.066e-08 | |
a | 2.387366903931747 | 1.5222e-08 | au |
q | 1.642026903209662 | 1.2026e-07 | au |
i | 8.297130657541695 | 5.1503e-06 | deg |
node | 70.76163434720698 | 4.0625e-05 | deg |
peri | 257.2559161322744 | 4.2003e-05 | deg |
M | 308.8282651733746 | 1.9736e-05 | deg |
tp | 2459392.015893162426 (2021-Jun-26.51589316) | 7.5406e-05 | TDB |
period | 1347.339928420791 3.69 | 1.2886e-05 3.528e-08 | d yr |
n | .2671931503002021 | 2.5554e-09 | deg/d |
Q | 3.132706904653832 | 1.9974e-08 | au |
|
| | Orbit Determination Parameters
Additional Information
|